DMSP 5D-2 F13 DEB, 42315

Orbit data source: Space-Track

DMSP 5D-2 F13 DEB, 42315 is space debris in SSO originally from a launch on Fri, 24 Mar 1995 UTC launched from the Air Force Western Test Range (AFWTR). Debris objects in space refer to the collection of defunct objects orbiting the Earth. Examples of debris include non-operational satellites, rocket bodies, and fragments generated from explosions, collisions, or faulty payload assembly.

Loading next visibility...
Identifier
42315, 1995-015JH
Orbit
SSO
Country
Flag of USUS
Related business
Manufacturer
Unknown
Mission
Spacecraft
Bus & Motor
Unknown
Mass
Unknown
Launch date (UTC)
1995-03-24 (31 years ago)
Launch vehicle
Unknown
Launch site
Air Force Western Test Range (AFWTR)
Object type
Payload
Rocket body
Debris
Shape & HBR
Unknown shape, 0.1 m
Radar Cross Section
Small (<0.1 m²)

Expand to show TLE details & history
Last TLE update: 15 hours ago

TLE from 15 hours ago
0 DMSP 5D-2 F13 DEB
1 42315U 95015JH  26035.41376940  .00008624  00000-0  21640-2 0  9990
2 42315  98.5625  92.4020 0024244 215.4893 144.4689 14.51390588548598
Epoch: 2026-02-04T09:55Z
TLE epoch observation values (Epoch: 2026-02-04T09:55:49.676Z)
Latitude
-0.00004°
Longitude
168.86432°
Altitude
738.096 km
Speed
7.478 km/s
True Right ascension
06h 09m 36s
True Declination
0° 00' 00"
Sunlit
Object was in full shadow at epoch
Visualization orbit readout
Latitude
Unknown
Longitude
Unknown
Altitude
Unknown
Speed
Unknown
Apparent Right ascension
Unknown
Apparent Declination
Unknown
Sunlit
N/A
Visualization observer readout
Local Sidereal Time
02:37:15
Azimuth
Unknown
Elevation
Unknown
Doppler factor
Unknown
Orbital elements
Apogee altitude
735.424 km
Perigee altitude
701.016 km
Semi-major axis
7,096.357 km
Eccentricity
0.00242
Inclination
98.5625°
RAAN
92.402°
Arg. of periapsis
215.4893°
True anomaly
144.62995°
Mean anomaly
144.4689°
Eccentric anomaly
144.54947°
Mean motion
3.6307 °/min
Orbital period
99.15 mins
BSTAR
0.002164
Loading maneuver chart data...
Computing Atmospheric mass density...

Documentation

Showing up to 5 results
|